Location: Augsburg
(48.3836°N, 10.8929°E)
Time: 15:31:07
(UTC+02:00)

ISS - Pass Details

Date: 22 May 2021
Orbit: 417 x 422 km, 51.6° (Epoch: 12 June)

Event Time Altitude Azimuth Distance (km) Brightness Sun altitude
Rises 01:21:10 0° 291° (WNW) 2,371 0.3 -21.2°
Reaches altitude 10° 01:23:19 10° 285° (WNW) 1,505 -0.8 -21.2°
Enters shadow 01:24:15 17° 279° (W) 1,151 -1.5 -21.2°
